Location: Nelson
(41.2830°S, 173.2830°E)
Time: 00:46:43
(UTC+12:00)

Cosmos 2181 Rocket - Pass Details

Date: 24 January 2019
Orbit: 951 x 1015 km, 82.9° (Epoch: 21 April)

Event Time Altitude Azimuth Distance (km) Brightness Sun altitude
Rises 23:29:59 0° 184° (S) 3,671 8.0 -22.5°
Reaches altitude 10° 23:32:34 10° 179° (S) 2,724 7.1 -22.8°
Maximum altitude 23:38:41 56° 101° (E) 1,151 4.2 -23.4°
Enters shadow 23:40:05 46° 57° (ENE) 1,284 4.2 -23.5°
